{"data":{"norad_id":66959,"intl_designator":"2025-288A","name":"STARLINK-35887","alt_names":[],"object_type":"PAYLOAD","status":"ACTIVE","operator":null,"country":"US","launch_date":"2025-12-08","launch_site_code":"AFETR","launch_vehicle":null,"mission":null,"orbit_class":"UNKNOWN","rcs_meters":null,"size_class":null,"mass_kg":null,"dimensions":null,"purposes":["comms"],"wikipedia_slug":null,"has_3d_model":false,"image_url":null,"decayed_at":null,"tle_current":{"epoch":"2026-09-20T07:29:24.439488Z","epoch_age_seconds":97933,"freshness":"FRESH","line1":"1 66959U 25288A   26263.31208842  .00011336  00000+0  42073-3 0  9999","line2":"2 66959  42.9998   4.2278 0000535 270.8555  89.2235 15.27586822 45055","mean_motion":15.27586822,"eccentricity":5.35e-5,"inclination_deg":42.9998,"raan_deg":4.2278,"arg_perigee_deg":270.8555,"mean_anomaly_deg":89.2235,"bstar":0.00042073,"rev_number":4505,"period_min":94.266327730863,"perigee_km":482.6615962302,"apogee_km":483.39574095674,"semimajor_km":6861.1656685935,"source":"CELESTRAK","updated_at":"2026-09-21T09:00:36.061783Z"}}}